This demonstration page uses our WeatherBlox Daily Observations layout. Learn more.

Left ArrowRight Arrow

39.01783, -85.05884

Hourly Observations for June 26, 2017

Temp ( °F °C ) Dew Point ( °F °C ) Humidity (%) Winds ( mph kmh ) Pressure ( in mb ) Visibility ( mi km ) Precip ( " mm )
12:52 am 00:52 Mostly Cloudy 57 13.9 52 11.1 83 83 SW 5 7 30.11 1020 10 16 N/A
1:52 am 01:52 Partly Cloudy 61 16.1 51 10.6 70 70 WSW 6 9 30.11 1020 10 16 N/A
2:52 am 02:52 Mostly Clear 58 14.4 51 10.6 78 78 W 8 13 30.11 1020 10 16 N/A
3:52 am 03:52 Mostly Clear 59 15 50 10 72 72 WNW 7 11 30.11 1020 10 16 N/A
4:52 am 04:52 Mostly Clear 56 13.3 50 10 81 81 W 6 9 30.11 1020 10 16 N/A
5:52 am 05:52 Clear 55 12.8 50 10 83 83 WNW 8 13 30.12 1020 10 16 N/A
6:52 am 06:52 Sunny 53 11.7 50 10 89 89 W 5 7 30.13 1020 10 16 N/A
7:52 am 07:52 Sunny 60 15.6 51 10.6 72 72 W 6 9 30.14 1021 10 16 N/A
8:52 am 08:52 Sunny 63 17.2 53 11.7 70 70 W 6 9 30.14 1021 10 16 N/A
9:52 am 09:52 Mostly Sunny 65 18.3 52 11.1 63 63 SW 7 11 30.16 1021 10 16 N/A
10:52 am 10:52 Partly Cloudy 68 20 53 11.7 59 59 WNW 7 11 30.16 1021 10 16 N/A
11:52 am 11:52 Mostly Cloudy 71 21.7 48 8.9 44 44 WNW 15 24 30.14 1021 10 16 N/A
12:52 pm 12:52 Mostly Cloudy 72 22.2 49 9.4 44 44 NW 14 22 30.14 1021 10 16 N/A
1:52 pm 13:52 Mostly Cloudy 71 21.7 48 8.9 44 44 WNW 14 22 30.13 1020 10 16 N/A
2:52 pm 14:52 Mostly Cloudy 73 22.8 49 9.4 43 43 WNW 12 19 30.12 1020 10 16 N/A
3:52 pm 15:52 Mostly Cloudy 74 23.3 48 8.9 40 40 W 14 22 30.09 1019 10 16 N/A
4:52 pm 16:52 Mostly Cloudy 74 23.3 50 10 43 43 W 12 19 30.08 1019 10 16 N/A
5:52 pm 17:52 Mostly Cloudy 71 21.7 50 10 47 47 W 12 19 30.07 1018 10 16 N/A
6:52 pm 18:52 Mostly Cloudy 70 21.1 51 10.6 51 51 W 10 17 30.06 1018 10 16 N/A
7:52 pm 19:52 Mostly Cloudy 68 20 49 9.4 51 51 W 8 13 30.06 1018 10 16 N/A
8:52 pm 20:52 Mostly Cloudy 67 19.4 49 9.4 53 53 W 6 9 30.04 1017 10 16 N/A
9:52 pm 21:52 Mostly Cloudy 66 18.9 50 10 56 56 WSW 7 11 30.04 1017 10 16 N/A
10:52 pm 22:52 Mostly Cloudy 64 17.8 49 9.4 58 58 W 8 13 30.06 1018 10 16 N/A
11:52 pm 23:52 Mostly Cloudy 64 17.8 49 9.4 58 58 WNW 10 17 30.06 1018 10 16 N/A

Powered by AerisWeather